Dalaman, Turkey

2:34 PM +03 on February 27, 2017 (GMT +0300)
Dalaman

Weather History for LTBS - October, 2012

Change the Weather History Date:

Tuesday, October 23, 2012

  Actual Average Record
Temperature  
Mean Temperature 66 °F -  
Max Temperature 72 °F 74 °F 80 °F (2003)
Min Temperature 59 °F 55 °F 46 °F (2005)
Growing Degree Days 16 (Base 50)    
Moisture  
Dew Point 58 °F    
Average Humidity 86    
Maximum Humidity 100    
Minimum Humidity 53    
Precipitation  
Precipitation 0.98 in - - ()
Sea Level Pressure  
Sea Level Pressure 29.93 in    
Wind  
Wind Speed 6 mph ()    
Max Wind Speed 13 mph    
Max Gust Speed -    
Visibility 5.6 miles    
Events Rain , Thunderstorm    
Averages and records for this station are not official NWS values.
T = Trace of Precipitation, MM = Missing Value Source: Averaged Metar Reports

Daily Weather History Graph

Daily Weather History Graph

Search for Another Location

Airport or City:

Trip Planner

Search our weather history database for the weather conditions in past years. The results will help you decide how hot, cold, wet, or windy it might be!

Date:

Astronomy

Oct. 23, 2012 Rise Set
Actual Time 7:19 AM EEST 6:17 PM EEST
Civil Twilight 6:53 AM EEST 6:44 PM EEST
Nautical Twilight 6:23 AM EEST 7:14 PM EEST
Astronomical Twilight 5:53 AM EEST 7:44 PM EEST
Moon 2:41 PM EEST (10/23) 1:00 AM EEST (10/23)
Length of Visible Light 11h 50m
Length of Day
10h 58m
Waxing Gibbous, 63% of the Moon is Illuminated
Oct 23
Waxing Gibbous
Oct 29
Full
Nov 7
Last Quarter
Nov 14
New
Nov 20
First Quarter

Hourly Weather History & Observations

Time (EEST) Temp. Dew Point Humidity Pressure Visibility Wind Dir Wind Speed Gust Speed Precip Events Conditions
12:20 AM 60.8 °F 59.0 °F 94% 29.92 in 6.2 mi ENE 4.6 mph - N/A Thunderstorm Thunderstorm
12:50 AM 60.8 °F 59.0 °F 94% 29.92 in 6.2 mi NNE 6.9 mph - N/A   Mostly Cloudy
1:20 AM 60.8 °F 59.0 °F 94% 29.92 in 6.2 mi NNE 8.1 mph - N/A Thunderstorm Mostly Cloudy
1:50 AM 60.8 °F 59.0 °F 94% 29.92 in 6.2 mi North 9.2 mph - N/A Thunderstorm Mostly Cloudy
2:20 AM 60.8 °F 59.0 °F 94% 29.92 in 6.2 mi North 6.9 mph - N/A Thunderstorm Mostly Cloudy
2:50 AM 59.0 °F 59.0 °F 100% 29.92 in 6.2 mi Variable 3.5 mph - N/A Thunderstorm Mostly Cloudy
3:00 AM 59 °F 58 °F 97% 29.93 in 6 mi NE 3.5 mph - -   Partly Cloudy
3:20 AM 59.0 °F 59.0 °F 100% 29.92 in 6.2 mi Variable 2.3 mph - N/A Thunderstorm Mostly Cloudy
3:50 AM 59.0 °F 59.0 °F 100% 29.89 in 6.2 mi ENE 4.6 mph - N/A Thunderstorm Mostly Cloudy
4:20 AM 60.8 °F 59.0 °F 94% 29.89 in 6.2 mi NNE 4.6 mph - N/A   Mostly Cloudy
4:50 AM 60.8 °F 59.0 °F 94% 29.89 in 6.2 mi North 5.8 mph - N/A   Mostly Cloudy
5:20 AM 60.8 °F 57.2 °F 88% 29.89 in 6.2 mi North 6.9 mph - N/A   Mostly Cloudy
5:50 AM 59.0 °F 57.2 °F 94% 29.89 in 6.2 mi NNE 8.1 mph - N/A   Mostly Cloudy
6:20 AM 60.8 °F 57.2 °F 88% 29.89 in 6.2 mi North 6.9 mph - N/A   Mostly Cloudy
6:50 AM 59.0 °F 57.2 °F 94% 29.89 in 6.2 mi NNE 8.1 mph - N/A   Mostly Cloudy
7:20 AM 59.0 °F 57.2 °F 94% 29.89 in 6.2 mi NE 4.6 mph - N/A   Mostly Cloudy
7:50 AM 59.0 °F 57.2 °F 94% 29.89 in 6.2 mi NE 5.8 mph - N/A Rain Light Rain Showers
8:20 AM 59.0 °F 57.2 °F 94% 29.89 in 6.2 mi North 6.9 mph - N/A Rain Light Rain Showers
8:50 AM 59.0 °F 59.0 °F 100% 29.92 in 6.2 mi East 4.6 mph - N/A   Mostly Cloudy
9:20 AM 60.8 °F 59.0 °F 94% 29.92 in 6.2 mi North 6.9 mph - N/A   Mostly Cloudy
9:50 AM 62.6 °F 59.0 °F 88% 29.92 in 6.2 mi NE 5.8 mph - N/A   Mostly Cloudy
10:50 AM 62.6 °F 59.0 °F 88% 29.95 in 6.2 mi NE 4.6 mph - N/A   Mostly Cloudy
11:20 AM 64.4 °F 60.8 °F 88% 29.92 in 6.2 mi ENE 5.8 mph - N/A   Mostly Cloudy
11:50 AM 66.2 °F 59.0 °F 78% 29.92 in 6.2 mi East 4.6 mph - N/A Thunderstorm Thunderstorm
12:20 PM 68.0 °F 60.8 °F 78% 29.95 in 6.2 mi Variable 1.2 mph - N/A Thunderstorm Thunderstorm
12:50 PM 71.6 °F 60.8 °F 69% 29.92 in 6.2 mi SSW 6.9 mph - N/A   Mostly Cloudy
1:20 PM 71.6 °F 57.2 °F 60% 29.92 in 6.2 mi Variable 5.8 mph - N/A   Mostly Cloudy
1:50 PM 71.6 °F 59.0 °F 64% 29.92 in 6.2 mi ESE 6.9 mph - N/A   Mostly Cloudy
2:20 PM 69.8 °F 57.2 °F 64% 29.92 in 6.2 mi South 9.2 mph - N/A   Mostly Cloudy
2:50 PM 69.8 °F 57.2 °F 64% 29.92 in 6.2 mi SSE 8.1 mph - N/A   Mostly Cloudy
3:00 PM 70 °F 57 °F 53% 29.93 in 6 mi SSE 8.1 mph - -   Partly Cloudy
3:20 PM 69.8 °F 57.2 °F 64% 29.92 in 6.2 mi South 8.1 mph - N/A Thunderstorm Thunderstorm
3:50 PM 69.8 °F 59.0 °F 68% 29.92 in 6.2 mi South 8.1 mph - N/A   Mostly Cloudy
4:20 PM 69.8 °F 59.0 °F 68% 29.92 in 6.2 mi South 5.8 mph - N/A Thunderstorm Thunderstorm
4:50 PM 69.8 °F 59.0 °F 68% 29.92 in 6.2 mi SW 6.9 mph - N/A Thunderstorm Thunderstorm
5:20 PM 68.0 °F 60.8 °F 78% 29.92 in 6.2 mi South 5.8 mph - N/A Thunderstorm Thunderstorm
5:50 PM 68.0 °F 60.8 °F 78% 29.92 in 6.2 mi Variable 2.3 mph - N/A Thunderstorm Thunderstorm
6:20 PM 64.4 °F 59.0 °F 83% 29.92 in 6.2 mi ESE 8.1 mph - N/A Rain , Thunderstorm Light Thunderstorms and Rain
6:50 PM 60.8 °F 59.0 °F 94% 29.95 in 2.5 mi SE 12.7 mph - N/A Rain , Thunderstorm Thunderstorms and Rain
7:20 PM 60.8 °F 59.0 °F 94% 29.95 in 2.5 mi East 6.9 mph - N/A Rain , Thunderstorm Thunderstorms and Rain
7:50 PM 59.0 °F 59.0 °F 100% 29.98 in 2.5 mi NE 6.9 mph - N/A Rain , Thunderstorm Thunderstorms and Rain
8:20 PM 59.0 °F 59.0 °F 100% 29.98 in 2.5 mi NE 8.1 mph - N/A Rain , Thunderstorm Thunderstorms and Rain
8:50 PM 60.8 °F 57.2 °F 88% 29.98 in 2.8 mi East 4.6 mph - N/A Rain , Thunderstorm Thunderstorms and Rain
9:00 PM 60 °F 57 °F 88% 29.99 in 3 mi East 4.6 mph - - Rain , Thunderstorm Thunderstorms and Rain
9:20 PM 59.0 °F 57.2 °F 94% 29.98 in 2.8 mi NE 5.8 mph - N/A Rain , Thunderstorm Thunderstorms and Rain
9:50 PM 59.0 °F 57.2 °F 94% 29.95 in 3.7 mi North 9.2 mph - N/A Rain Light Rain Showers
10:20 PM 59.0 °F 57.2 °F 94% 29.95 in 6.2 mi North 9.2 mph - N/A   Mostly Cloudy
10:50 PM 59.0 °F 57.2 °F 94% 29.98 in 6.2 mi NNE 5.8 mph - N/A   Mostly Cloudy
11:20 PM 59.0 °F 57.2 °F 94% 29.95 in 6.2 mi North 6.9 mph - N/A   Mostly Cloudy
11:50 PM 59.0 °F 57.2 °F 94% 29.95 in 6.2 mi NNE 9.2 mph - N/A   Scattered Clouds